Current Version              Previous Version:    01  02  03  04  05  06  07  08  09  10  11  12  13  14  15  16  17  18  19  20  21  22  23  24  25  26  27  28  29  30  
   31  32  33  34  35  36  37  38  39  40  41  42  43  44  45  46  47  48  49  50  51  52  53  54  55  56  57  58  59  60  

[Printable]
852
ASUS44 KLUB 200310
RWRTX
WEST TEXAS WEATHER ROUNDUP
NATIONAL WEATHER SERVICE LUBBOCK TX
900 PM CST FRI DEC 19 2014

NOTE: "FAIR" INDICATES FEW OR NO CLOUDS BELOW 12,000 FEET WITH NO
SIGNIFICANT WEATHER AND/OR OBSTRUCTIONS TO VISIBILITY.

TXZ004-006>008-010-012-014-016-OKZ002-200400-
TEXAS PANHANDLE/OKLAHOMA PANHANDLE

CITY           SKY/WX    TMP DP  RH WIND       PRES   REMARKS
AMARILLO       CLOUDY    39  35  86 S7        30.15R WCI  34
BORGER         CLOUDY    42  35  76 SW7       30.14R
CANADIAN       CLOUDY    44  38  82 SW5       30.15S
DALHART        CLEAR     29  26  89 SW9       30.11S FOG     WCI  20
DUMAS          CLEAR     29  28  96 S9        30.12R WCI  20
GUYMON         CLEAR     31  29  92 S7        30.10F WCI  24
HEREFORD       FOG       30  30  99 S3        30.14S VSB 1
PAMPA          CLOUDY    40  36  87 SW7       30.15R WCI  35
PERRYTON       CLOUDY    40  36  86 SW7       30.12F
$$

TXZ026-029-035-045-048-200400-
SOUTHERN PANHANDLE/SOUTH PLAINS/ROLLING PLAINS

CITY           SKY/WX    TMP DP  RH WIND       PRES   REMARKS
CHILDRESS      CLOUDY    42  39  89 S6        30.19S
SEMINOLE       CLEAR     37  35  90 CALM      30.16S
LUBBOCK        CLOUDY    39  36  89 E6        30.16R WCI  35
PLAINVIEW      CLOUDY    40  38  93 CALM      30.15R
SNYDER         CLOUDY    43  38  83 NE3       30.19S
$$

TXZ052-054-060>062-072-078-127-140-154-169-200400-
PERMIAN BASIN/CONCHO VALLEY/BIG COUNTRY/EDWARDS PLATEAU

CITY           SKY/WX    TMP DP  RH WIND       PRES   REMARKS
ABILENE        CLOUDY    44  42  93 N5        30.20F
BIG SPRING     CLEAR     41  37  84 NE3       30.19R
BRADY          CLOUDY    48  43  81 E3        30.17R
BROWNWOOD      CLOUDY    48  41  76 N6        30.19S
JUNCTION       CLEAR     45  43  93 CALM      30.17R
MIDLAND        CLEAR     41  36  82 E7        30.15R
ODESSA         CLEAR     40  35  83 E7        30.15R
SAN ANGELO     CLOUDY    49  40  71 NE5       30.19R
SONORA         CLEAR     45  41  87 N9        30.21R
SWEETWATER     CLOUDY    45  38  77 NE3       30.21S
WINK           CLEAR     45  30  55 SE5       30.11S
$$

TXZ055-058-074-075-080-082-200400-
FAR WEST/SOUTHWEST MOUNTAINS/TRANS PECOS

CITY           SKY/WX    TMP DP  RH WIND       PRES   REMARKS
ALPINE         CLEAR     36  28  73 W7        30.23R WCI  30
DRYDEN           N/A     51  37  58 N7        30.13R
EL PASO        CLEAR     44  29  55 N9        30.15R
FORT STOCKTON  CLEAR     45  33  63 SE6       30.14S
MARFA          CLEAR     34  21  60 NE3       30.19R
PECOS          CLEAR     44  30  59 SE5       30.13R
PRESIDIO       FAIR      50  31  47 N7        30.13R
$$

TXZ014-016-019-021>030-083-200400
TEXAS TECH WEST TEXAS MESONET/TEXAS PANHANDLE/NORTHERN SOUTH PLAINS

CITY           SKY/WX    TMP DP  RH WIND       PRES   REMARKS
ABERNATHY 5ENE   N/A     38  37  96 S6        30.17R WCI  34
AMARILLO 9NNE    N/A     39  34  83 S5        30.14S
AMARILLO 7SSE    N/A     37  33  86 SE3       30.15R
AMHERST 1NE      N/A     30  29  97 SE5       30.15S WCI  25
BOOTLEG 11WNW    N/A     27  25  94 SE8       30.13S WCI  18
CANADIAN 6E      N/A     42  37  84 S6        30.14R
CAPROCK CYN SP   N/A     40  39  95 S3        30.18R
CHILDRESS 2NNE   N/A     41  39  93 SE6       30.18S
CLARENDON 2WSW   N/A     40  37  87 S5        30.16R
CLAUDE 12SW      N/A     38  36  92 S3        30.15R
DIMMITT 2NE      N/A     28  28  97 SE7       30.14S WCI  21
FLOYDADA 2NNE    N/A     38  37  94 E5        30.16R WCI  35
FRIONA 2NE       N/A     26  25  94 SE7       30.14S WCI  18
GOODLETT 3W      N/A     42  40  89 SE3       30.19F
HART 3N          N/A     32  31  98 SE5       30.15S WCI  27
HEREFORD 2NW     N/A     31  30  96 SE3       30.13S
MCLEAN 1E        N/A     37  36  94 S3        30.14S
MEMPHIS 1NE      N/A     42  38  85 SE3       30.18S
MULESHOE 2SSW    N/A     31  30  98 SE6       30.14S WCI  25
OLTON 6S         N/A     30  29  95 S9        30.15S WCI  22
PALO DURO SP     N/A     39  35  84 S6        30.16R WCI  35
PAMPA 2E         N/A     39  37  92 S7        30.14S WCI  34
PLAINVIEW 1S     N/A     39  37  94 SE5       30.15R
SILVERTON 7ESE   N/A     39  37  94 S5        30.17R
TULIA 2ENE       N/A     37  36  97 SE3       30.16R
TURKEY 2WSW      N/A     41  39  94 SW2       30.17S
UMBARGER 3NNE    N/A     29  27  94 SE5       30.15R WCI  24
$$

TXZ033>036-039>041-045>048-200400
TEXAS TECH WEST TEXAS MESONET/SOUTH PLAINS

CITY           SKY/WX    TMP DP  RH WIND       PRES   REMARKS
AIKEN 3WSW       N/A     39  38  95 SE7       30.17R WCI  34
ANTON 6SSW       N/A     30  29  96 E7        30.16R WCI  24
BROWNFIELD 2S    N/A     31  29  94 SE6       30.16R WCI  25
DENVR CTY 7WNW   N/A     36  32  86 E7        30.14R WCI  30
GAIL 2ESE        N/A     41  36  81 E2        30.18R
LAMESA 2SE       N/A     33  32  94 E3        30.18R
LEVELLAND 4S     N/A     31  29  91 E3        30.16R
LUBBOCK 3WNW     N/A     35  33  94 NE2       30.17R
MORTON 1ENE      N/A     30  29  95 E7        30.14S WCI  23
ODONNELL 1N      N/A     37  34  90 E6        30.17S WCI  32
PLAINS 3N        N/A     35  32  90 E8        30.14S WCI  28
RALLS 1SE        N/A     39  37  91 SE3       30.18R
REESE CENTER     N/A     31  30  96 E5        30.16R WCI  26
SEAGRAVES 1SW    N/A     36  33  91 E5        30.15S WCI  32
SEMINOLE 2NNE    N/A     36  33  89 E7        30.15S WCI  30
SLATON 2NE       N/A     37  34  90 E2        30.17R
SNYDER 3E        N/A     42  38  87 NE5       30.18S
SUNDOWN 8SW      N/A     29  28  93 SE7       30.15R WCI  22
TAHOKA 3NNE      N/A     32  30  95 E3        30.17R
WOLFFORTH 6SSW   N/A     31  30  99 SE6       30.17R WCI  25
$$

TXZ031-032-036>038-042>044-200400-
TEXAS TECH WEST TEXAS MESONET/ROLLING PLAINS

CITY           SKY/WX    TMP DP  RH WIND       PRES   REMARKS
ASPERMONT 3NE    N/A     45  38  78 NE3       30.20S
FLUVANNA 3WNW    N/A     40  36  83 E3        30.17S
GRAHAM 5SSW      N/A     39  35  85 E6        30.17R
GUTHRIE 10WSW    N/A     43  38  84 E5        30.19S
HASKELL 1NW      N/A     44  39  82 NE6       30.20F
JAYTON 1SSE      N/A     43  38  85 CALM      30.20R
KNOX CITY 3NW    N/A     44  38  78 NE2       30.22S
LK A HENRY 1NW   N/A     42  37  82 NE3       30.19R
NORTHFIELD 1S    N/A     42  40  92 SE3       30.18S
ODELL 4ENE       N/A     43  41  91 SE2       30.22S
PADUCAH 10SW     N/A     42  38  86 SE2       30.19S
POST 1NE         N/A     41  36  83 E6        30.18R
SEYMOUR 3NW      N/A     44  39  81 W1        30.22S
SPUR 1W          N/A     41  37  86 SE2       30.19R
WHITE RVR 6NE    N/A     41  36  84 SE2       30.18R
$$

TXZ052-054-060>062-072-078-127-140-154-169-200400-
TEXAS TECH WEST TEXAS MESONET/PERMIAN BASIN/
CONCHO VALLEY/BIG COUNTRY/EDWARDS PLATEAU

CITY           SKY/WX    TMP DP  RH WIND       PRES   REMARKS
COYANOSA 2N      N/A     44  31  60 SE8       30.14S
JUNCTION 1SSW    N/A     42  41  95 CALM      30.18R
MERTZON 3NNE     N/A     47  40  78 E3        30.20R
SAN ANGELO 7NW   N/A     48  39  71 NE2       30.19S
STRLNG CT 4WSW   N/A     42  37  81 E3        30.19R
ST LAWRNCE 5SW   N/A     38  34  85 E7        30.16R WCI  33
SWEETWATR 11SW   N/A     43  38  80 E5        30.19S
WALL 1E          N/A     47  40  76 N5        30.21R
$$

TXZ055-058-074-075-080-082-200400-
TEXAS TECH WEST TEXAS MESONET/FAR WEST/SOUTHWEST MOUNTAINS/TRANS PECOS

CITY           SKY/WX    TMP DP  RH WIND       PRES   REMARKS
PRSMN GAP BBNP   N/A     56  38  50 N13       30.13R
$$